EW9060 Weather Reports


time (UTC)temp
C
wind
direction
speed
KPH
gust
KPH
rain 1hr
cm
rain 24hr
cm
rain mn
cm
humidity
%
barometer
mb
20260906173002 21 132 0.0 14.5 0.00 0.00 0.00 61 1015.2
20260906171607 20 155 3.2 12.9 0.00 0.00 0.00 60 1015.2
20260906164552 19 145 3.2 16.1 0.00 0.00 0.00 64 1015.2
20260906163047 18 156 6.4 17.7 0.00 0.00 0.00 67 1015.2
20260906161545 18 144 6.4 16.1 0.00 0.00 0.00 68 1015.3
20260906160044 17 165 3.2 11.3 0.00 0.00 0.00 71 1015.2
20260906154542 17 129 4.8 11.3 0.00 0.00 0.00 73 1015.2
20260906153040 16 184 6.4 12.9 0.00 0.00 0.00 74 1015.2
20260906151540 16 148 4.8 16.1 0.00 0.00 0.00 76 1015.1
20260906150037 15 11 3.2 16.1 0.00 0.00 0.00 77 1015.2
20260906144537 15 12 3.2 14.5 0.00 0.00 0.00 78 1015.1
20260906143036 15 14 4.8 8.0 0.00 0.00 0.00 79 1014.9
20260906141531 14 136 1.6 11.3 0.00 0.00 0.00 79 1014.7
20260906140032 14 93 4.8 9.7 0.00 0.00 0.00 79 1014.5
20260906134528 14 167 3.2 12.9 0.00 0.00 0.00 78 1014.4
20260906133029 14 167 6.4 9.7 0.00 0.00 0.00 77 1014.3
20260906131535 15 161 1.6 11.3 0.00 0.00 0.00 76 1014.3
20260906130021 15 171 4.8 11.3 0.00 0.00 0.00 76 1014.0
20260906124520 15 179 1.6 12.9 0.00 0.00 0.00 75 1013.9
20260906123018 15 165 1.6 9.7 0.00 0.00 0.00 75 1013.9
20260906121517 15 171 3.2 9.7 0.00 0.00 0.00 74 1013.9
20260906120016 15 200 4.8 14.5 0.00 0.00 0.00 74 1013.9
20260906114515 15 192 4.8 12.9 0.00 0.00 0.00 73 1014.1
20260906113020 15 209 3.2 11.3 0.00 0.00 0.00 73 1014.1
20260906111512 15 175 0.0 16.1 0.00 0.00 0.00 72 1014.0
20260906110011 15 157 1.6 11.3 0.00 0.00 0.00 72 1013.8
20260906104519 15 152 1.6 8.0 0.00 0.00 0.00 71 1013.8
20260906103009 15 144 4.8 11.3 0.00 0.00 0.00 71 1013.9
20260906101508 16 140 3.2 9.7 0.00 0.00 0.00 70 1013.9
20260906100006 16 134 1.6 11.3 0.00 0.00 0.00 70 1014.0
20260906094513 16 152 1.6 11.3 0.00 0.00 0.00 69 1014.0
20260906093002 16 152 4.8 12.9 0.00 0.00 0.00 68 1014.0
20260906091500 16 140 3.2 12.9 0.00 0.00 0.00 67 1014.0
20260906090100 16 145 3.2 11.3 0.00 0.00 0.00 67 1014.0
20260906084558 16 186 4.8 12.9 0.00 0.00 0.00 66 1014.1
20260906083100 17 152 4.8 12.9 0.00 0.00 0.00 64 1014.2
20260906081558 17 111 4.8 14.5 0.00 0.00 0.00 63 1014.1
20260906080059 17 113 3.2 9.7 0.00 0.00 0.00 61 1014.0
20260906074550 17 128 4.8 11.3 0.00 0.00 0.00 60 1014.0
20260906073047 17 123 1.6 8.0 0.00 0.00 0.00 59 1014.0
20260906071557 18 153 1.6 4.8 0.00 0.00 0.00 58 1014.0
20260906070043 18 168 1.6 8.0 0.00 0.00 0.00 57 1014.0
20260906064543 18 232 0.0 8.0 0.00 0.00 0.00 56 1013.9
20260906063042 19 186 0.0 6.4 0.00 0.00 0.00 54 1014.0
20260906061542 19 156 3.2 6.4 0.00 0.00 0.00 52 1014.1
20260906060041 20 221 1.6 8.0 0.00 0.00 0.00 49 1014.1
20260906054541 20 214 1.6 8.0 0.00 0.00 0.00 46 1014.1
20260906053047 21 219 0.0 8.0 0.00 0.00 0.00 43 1014.1
20260906051539 21 186 0.0 8.0 0.00 0.00 0.00 41 1014.1
20260906050042 21 264 1.6 8.0 0.00 0.00 0.00 41 1014.1
20260906044539 21 264 0.0 9.7 0.00 0.00 0.00 40 1014.0
20260906043040 22 238 0.0 9.7 0.00 0.00 0.00 40 1013.9
20260906041538 22 186 3.2 9.7 0.00 0.00 0.00 40 1013.8
20260906040039 22 203 4.8 11.3 0.00 0.00 0.00 42 1013.7
20260906034544 23 202 4.8 11.3 0.00 0.00 0.00 42 1013.5
20260906033036 23 173 0.0 12.9 0.00 0.00 0.00 41 1013.4
20260906031536 24 213 1.6 14.5 0.00 0.00 0.00 41 1013.2
20260906030035 25 172 0.0 19.3 0.00 0.00 0.00 40 1013.1
20260906024534 25 185 3.2 12.9 0.00 0.00 0.00 39 1013.1
20260906023033 26 200 1.6 11.3 0.00 0.00 0.00 38 1013.0
20260906021531 26 207 4.8 17.7 0.00 0.00 0.00 38 1013.0
20260906020038 27 185 4.8 14.5 0.00 0.00 0.00 36 1013.0
20260906014545 28 223 6.4 19.3 0.00 0.00 0.00 29 1012.9
20260906013032 28 155 3.2 14.5 0.00 0.00 0.00 27 1012.9
20260906011537 28 194 4.8 14.5 0.00 0.00 0.00 28 1013.0
20260906010028 29 146 4.8 12.9 0.00 0.00 0.00 28 1013.1
20260906004536 29 161 3.2 14.5 0.00 0.00 0.00 28 1013.1
20260906003043 29 192 3.2 17.7 0.00 0.00 0.00 28 1013.1
20260906001526 30 319 3.2 11.3 0.00 0.00 0.00 30 1013.0
20260906000023 29 182 8.0 19.3 0.00 0.00 0.00 29 1013.1
20260905234524 30 189 1.6 6.4 0.00 0.00 0.00 29 1013.2
20260905233020 30 157 1.6 12.9 0.00 0.00 0.00 29 1013.2
20260905231517 30 212 3.2 12.9 0.00 0.00 0.00 29 1013.4
20260905230016 29 258 1.6 14.5 0.00 0.00 0.00 30 1013.5
20260905224522 30 171 4.8 11.3 0.00 0.00 0.00 29 1013.7
20260905223007 28 130 1.6 9.7 0.00 0.00 0.00 30 1013.8
20260905221505 28 272 1.6 12.9 0.00 0.00 0.00 33 1013.8
20260905220005 28 288 0.0 6.4 0.00 0.00 0.00 33 1014.1
20260905214501 28 344 0.0 8.0 0.00 0.00 0.00 34 1014.2
20260905213058 28 61 1.6 9.7 0.00 0.00 0.00 32 1014.4
20260905211554 28 134 4.8 14.5 0.00 0.00 0.00 31 1014.6
20260905210052 27 226 0.0 8.0 0.00 0.00 0.00 35 1014.7
20260905204559 27 149 3.2 11.3 0.00 0.00 0.00 33 1014.8
20260905203055 26 235 1.6 12.9 0.00 0.00 0.00 33 1015.0
20260905201546 26 102 3.2 12.9 0.00 0.00 0.00 39 1014.9
20260905200052 26 154 3.2 11.3 0.00 0.00 0.00 41 1015.0
20260905194547 25 360 1.6 6.4 0.00 0.00 0.00 44 1015.2
20260905193037 25 79 1.6 8.0 0.00 0.00 0.00 45 1015.3
20260905191534 24 57 3.2 8.0 0.00 0.00 0.00 46 1015.5
20260905190034 23 105 3.2 8.0 0.00 0.00 0.00 50 1015.5
20260905184533 23 125 3.2 9.7 0.00 0.00 0.00 51 1015.6
20260905183026 22 169 3.2 8.0 0.00 0.00 0.00 54 1015.7
20260905181531 22 96 0.0 6.4 0.00 0.00 0.00 57 1015.7
20260905180019 21 65 1.6 6.4 0.00 0.00 0.00 58 1015.7
20260905174518 21 360 0.0 9.7 0.00 0.00 0.00 59 1015.7